Weather History for MMMY - August, 2013

Change the Weather History Date:

Monday, August 5, 2013

  Actual Average Record
Temperature  
Mean Temperature 88 °F -  
Max Temperature 100 °F 95 °F 104 °F (1996)
Min Temperature 75 °F 72 °F 69 °F (2002)
Cooling Degree Days 22    
Growing Degree Days 38 (Base 50)    
Moisture  
Dew Point 61 °F    
Average Humidity 46    
Maximum Humidity 78    
Minimum Humidity 20    
Precipitation  
Precipitation 0.00 in - - ()
Sea Level Pressure  
Sea Level Pressure 29.93 in    
Wind  
Wind Speed 7 mph ()    
Max Wind Speed 17 mph    
Max Gust Speed -    
Visibility 12.5 miles    
Events      
Averages and records for this station are not official NWS values.
T = Trace of Precipitation, MM = Missing Value Source: Averaged Metar Reports

Daily Weather History Graph

Daily Weather History Graph

Search for Another Location

Airport or City:

Trip Planner

Search our weather history database for the weather conditions in past years. The results will help you decide how hot, cold, wet, or windy it might be!

Date:

Astronomy

Aug. 05, 2013 Rise Set
Actual Time 7:08 AM CDT 8:23 PM CDT
Civil Twilight 6:44 AM CDT 8:48 PM CDT
Nautical Twilight 6:15 AM CDT 9:17 PM CDT
Astronomical Twilight 5:45 AM CDT 9:47 PM CDT
Moon 6:04 AM CDT (8/5) 7:28 PM CDT (8/5)
Length of Visible Light 14h 03m
Length of Day
13h 14m
Waning Crescent, 1% of the Moon is Illuminated
Aug 5
Waning Crescent
Aug 6
New
Aug 14
First Quarter
Aug 20
Full
Aug 28
Last Quarter

Hourly Weather History & Observations

Time (CDT) Temp. Heat Index Dew Point Humidity Pressure Visibility Wind Dir Wind Speed Gust Speed Precip Events Conditions
12:49 AM 82.4 °F 83.9 °F 64.4 °F 54% 29.95 in 15.0 mi East 8.1 mph - N/A   Clear
1:40 AM 80.6 °F 82.7 °F 66.2 °F 61% 29.99 in 15.0 mi East 9.2 mph - N/A   Clear
2:41 AM 80.6 °F 82.7 °F 66.2 °F 61% 29.99 in 15.0 mi ESE 11.5 mph - N/A   Clear
3:50 AM 78.8 °F - 68.0 °F 69% 29.92 in 15.0 mi ESE 9.2 mph - N/A   Scattered Clouds
4:42 AM 77.0 °F - 68.0 °F 74% 29.98 in 15.0 mi East 6.9 mph - N/A   Scattered Clouds
5:44 AM 75.2 °F - 68.0 °F 78% 29.99 in 15.0 mi Calm Calm - N/A   Scattered Clouds
6:48 AM 75.2 °F - 68.0 °F 78% 29.92 in 10.0 mi East 5.8 mph - N/A   Mostly Cloudy
7:45 AM 75.2 °F - 66.2 °F 73% 29.99 in 10.0 mi ENE 4.6 mph - N/A   Scattered Clouds
8:47 AM 78.8 °F - 66.2 °F 65% 30.00 in 8.0 mi East 6.9 mph - N/A   Scattered Clouds
9:48 AM 80.6 °F 82.7 °F 66.2 °F 61% 29.95 in 8.0 mi Calm Calm - N/A   Scattered Clouds
10:50 AM 84.2 °F 86.6 °F 66.2 °F 55% 30.01 in 8.0 mi ENE 5.8 mph - N/A   Partly Cloudy
11:48 AM 86.0 °F 86.6 °F 62.6 °F 45% 30.00 in 8.0 mi Calm Calm - N/A   Clear
12:54 PM 89.6 °F 90.1 °F 62.6 °F 40% 29.96 in 8.0 mi East 10.4 mph - N/A   Clear
1:49 PM 93.2 °F 91.9 °F 57.2 °F 30% 29.97 in 8.0 mi ESE 13.8 mph - N/A   Clear
2:44 PM 96.8 °F 95.8 °F 57.2 °F 27% 29.94 in 10.0 mi East 17.3 mph - N/A   Clear
3:41 PM 98.6 °F 97.6 °F 57.2 °F 25% 29.86 in 12.0 mi ESE 8.1 mph - N/A   Clear
4:44 PM 100.4 °F 98.8 °F 55.4 °F 22% 29.87 in 15.0 mi ENE 16.1 mph - N/A   Clear
5:45 PM 100.4 °F - 51.8 °F 20% 29.86 in 15.0 mi ESE 10.4 mph - N/A   Clear
6:48 PM 100.4 °F - 51.8 °F 20% 29.81 in 15.0 mi East 10.4 mph - N/A   Clear
7:42 PM 96.8 °F - 51.8 °F 22% 29.85 in 15.0 mi SE 11.5 mph - N/A   Clear
8:40 PM 95.0 °F - 51.8 °F 23% 29.86 in 15.0 mi SE 9.2 mph - N/A   Clear
9:41 PM 91.4 °F - 51.8 °F 26% 29.84 in 15.0 mi SSE 11.5 mph - N/A   Clear
10:40 PM 87.8 °F 85.7 °F 53.6 °F 31% 29.91 in 15.0 mi East 11.5 mph - N/A   Clear
11:49 PM 86.0 °F 87.3 °F 64.4 °F 48% 29.92 in 15.0 mi East 11.5 mph - N/A   Clear